Погода в Рисири

Япония     45°10′41″N   141°13′44″E
темп.,
°C
ветер,
м/с
пор.,
м/с
влажн.,
%
обл.,
%
осадки,
мм/ч
давл.,
гПа
погр.,
м
21 апреля, ср
ср2100:00+5сз12156127 0.0 10101611
03:00+5з12156322 0.0 10101257
06:00+5зсз1315622 0.0 10111491
09:00+5сз9116710 0.0 10131274
12:00+5ссз91464100 0.0 10151515
15:00+5ссз586382 0.0 1015853
18:00+5сз6126797 0.0 1017946
21:00+5сз91771100 0.0 10181107
22 апреля, чт
чт2200:00+5с10157797 0.0 1019987
03:00+4ссв7128456 0.0 1020819
06:00+4ссв12167791 0.0 10231053
09:00+3св91078100 0.0 10251004
12:00+3св687792 0.0 1026778
15:00+3всв45785 0.0 1026440
18:00+4всв55745 0.0 1026518
21:00+3в55825 0.0 1027369
23 апреля, пт
пт2300:00+3в33835 0.0 1027284
03:00+3в22848 0.0 1027255
06:00+3вюв32845 0.0 1026200
09:00+4зюз22795 0.0 1025198
12:00+5ююз227591 0.0 1024162
15:00+6ююз3374100 0.0 1022176
18:00+7ююз447799 0.0 102181
21:00+7юз568095 0.0 102086
24 апреля, сб
сб2400:00+7ююз5681100 0.0 101886
03:00+7ююз6885100 0.0 1016123
06:00+7юз6787100 0.0 1015152
09:00+7юз5691100 0.0 1014110
12:00+5сз6695100 0.3 1014219
15:00+3с6697100 3.3 1015395
18:00+3с3484100 3.0 1015469
21:00+4ссз3378100 3.0 1016538
25 апреля, вс
вс2500:00+4сз227799 0.0 1015356
03:00+4юз34745 0.0 1013319
06:00+5зюз577879 0.0 1012741
09:00+6юз34725 0.2 1011205
12:00+6юз3566100 0.1 1009234
15:00+4з8882100 0.8 1008604
18:00+5сз237514 0.1 1009414
21:00+5ссз786882 0.1 10121037